Content
SEND FEEDBACK

Daily
Averages
Monthly
Summary
United States of America

WILLIAMSTON, MICHIGAN


Home > North America > United States > Michigan
Elevation: 880 feet     Latitude: 42 41N     Longitude: 084 17W

WEATHER
 
SELECT A DAY
Number of Records: 430,870;   Date Range: 1/30/97 - 9/3/14
 
SHARE

PRINT THIS DATA

[ ← Previous Day ]
WEATHER ALMANAC - JANUARY 31, 2013
[ Next Day → ]
[ °C ]   °F
Weather ElementAverageHighLow
Temperature21.5 °F28.2 °F (12:35 am)15.8 °F (11:36 pm)
Dewpoint14.5 °F20.8 °F (12:35 am)10 °F (11:36 pm)
Humidity74.8 %86 % (5:35 pm)59 % (2:55 pm)
Barometer29.63 in29.87 in (11:55 pm)29.33 in (12:35 am)
Wind Speed16.3 mph26.5 mph (12:55 am)
Wind Gust35.7 mph (12:55 am)
Weather ElementAverage
Visibility7 mi
Wind DirectionW (270.6 °)

Weather ElementTotal
Precipitation---
Heating Degree Days43 (Base 65)
Averaged from 68 records on January 31, 2013
WEATHER CONDITIONS BREAKOUT
WIND DIRECTION BREAKOUT
WEATHER BY HOUR - JANUARY 31, 2013
[ °C ]   °F
Local TimeTemperatureDewpointHumidityBarometerVisibilityWind DirectionWind SpeedGust SpeedPrecipitationEventsConditions
12:35 AM28.2 °F20.8 °F74 %29.33 in10.0 miWest (280°)19.6 mph31.1 mphOvercast
12:55 AM27.5 °F19.0 °F71 %29.33 in10.0 miWest (270°)26.5 mph35.7 mphMostly Cloudy
1:14 AM26.6 °F19.2 °F74 %29.34 in10.0 miWest (280°)23.0 mph31.1 mphMostly Cloudy
1:35 AM26.4 °F19.9 °F77 %29.35 in10.0 miWest (280°)19.6 mph31.1 mphOvercast
1:55 AM26.6 °F19.9 °F76 %29.36 in7.0 miWest (280°)19.6 mph31.1 mphSnowLight Snow
2:14 AM26.2 °F18.7 °F73 %29.38 in10.0 miWest (280°)26.5 mph35.7 mphOvercast
2:35 AM25.9 °F17.8 °F71 %29.39 in10.0 miWest (280°)20.7 mph32.2 mphSnowLight Snow
2:55 AM25.7 °F18.3 °F74 %29.41 in10.0 miWest (280°)23.0 mph29.9 mphOvercast
3:14 AM25.2 °F18.5 °F76 %29.42 in5.0 miWest (280°)24.2 mph33.4 mphSnowLight Snow
3:35 AM24.4 °F19.9 °F83 %29.43 in1.8 miWest (270°)19.6 mph26.5 mphSnowLight Snow
3:55 AM24.3 °F17.4 °F75 %29.44 in10.0 miWest (280°)21.9 mph28.8 mphSnowLight Snow
4:14 AM24.1 °F16.7 °F73 %29.44 in10.0 miWest (270°)19.6 mph35.7 mphSnowLight Snow
4:35 AM23.7 °F16.5 °F74 %29.46 in10.0 miWest (280°)17.3 mph34.5 mphOvercast
4:55 AM23.7 °F17.2 °F76 %29.47 in10.0 miWest (270°)16.1 mph25.3 mphSnowLight Snow
5:15 AM23.7 °F15.8 °F72 %29.48 in10.0 miWest (270°)17.3 mph25.3 mphOvercast
5:35 AM23.5 °F15.8 °F72 %29.49 in7.0 miWest (270°)21.9 mph26.5 mphSnowLight Snow
5:54 AM23.4 °F14.9 °F70 %29.50 in10.0 miWest (280°)19.6 mph29.9 mphOvercast
6:15 AM23.0 °F15.8 °F74 %29.50 in10.0 miWest (270°)20.7 mph29.9 mphSnowLight Snow
6:35 AM23.0 °F15.8 °F74 %29.51 in10.0 miWest (270°)17.3 mph26.5 mphOvercast
6:54 AM23.0 °F15.1 °F72 %29.52 in10.0 miWest (270°)17.3 mph27.6 mphOvercast
7:15 AM22.8 °F15.1 °F72 %29.53 in10.0 miWest (270°)16.1 mph27.6 mphSnowLight Snow
7:35 AM22.6 °F14.9 °F72 %29.54 in10.0 miWest (280°)19.6 mph27.6 mphSnowLight Snow
7:54 AM22.5 °F16.3 °F77 %29.55 in5.0 miWest (270°)21.9 mph27.6 mphSnowLight Snow
8:15 AM22.6 °F15.4 °F74 %29.56 in10.0 miWest (270°)19.6 mph27.6 mphOvercast
8:35 AM22.5 °F16.3 °F77 %29.57 in7.0 miWest (260°)11.5 mph21.9 mphSnowLight Snow
8:54 AM22.1 °F16.9 °F80 %29.58 in5.0 miWest (270°)10.4 mph21.9 mphSnowLight Snow
9:15 AM22.1 °F15.3 °F75 %29.59 in7.0 miWest (260°)18.4 mph26.5 mphSnowLight Snow
9:35 AM21.9 °F16.3 °F79 %29.61 in1.5 miWest (270°)18.4 mph24.2 mphSnowLight Snow
9:55 AM21.7 °F15.6 °F77 %29.62 in3.0 miWSW (250°)13.8 mph28.8 mphSnowLight Snow
10:35 AM21.4 °F14.7 °F75 %29.64 in4.0 miWSW (250°)12.7 mph24.2 mphSnowLight Snow
10:55 AM21.2 °F14.2 °F74 %29.65 in5.0 miWest (260°)12.7 mph24.2 mphSnowLight Snow
11:15 AM21.9 °F15.4 °F76 %29.66 in5.0 miWest (280°)25.3 mph31.1 mphSnowLight Snow
11:35 AM22.1 °F14.5 °F73 %29.66 in4.0 miWest (270°)17.3 mph25.3 mphSnowLight Snow
12:15 PM21.9 °F12.9 °F68 %29.67 in4.0 miWest (270°)20.7 mph31.1 mphSnowLight Snow
12:35 PM23.2 °F12.6 °F64 %29.67 in10.0 miWest (280°)24.2 mph31.1 mphOvercast
12:55 PM22.5 °F12.2 °F65 %29.67 in10.0 miWest (260°)15.0 mph26.5 mphOvercast
1:15 PM22.3 °F10.6 °F61 %29.67 in10.0 miWest (270°)19.6 mph25.3 mphOvercast
1:35 PM22.1 °F10.4 °F61 %29.68 in10.0 miWest (270°)21.9 mph31.1 mphOvercast
1:55 PM22.1 °F10.4 °F61 %29.68 in7.0 miWest (280°)17.3 mph28.8 mphOvercast
2:15 PM22.1 °F10.4 °F61 %29.68 in10.0 miWest (270°)21.9 mph29.9 mphOvercast
2:35 PM22.6 °F11.3 °F62 %29.69 in10.0 miWest (270°)18.4 mph24.2 mphOvercast
2:55 PM22.6 °F10.4 °F59 %29.70 in10.0 miWest (260°)17.3 mph24.2 mphOvercast
3:15 PM20.7 °F15.8 °F81 %29.71 in1.2 miWest (270°)13.8 mph18.4 mphSnowLight Snow
3:35 PM21.6 °F12.9 °F69 %29.71 in10.0 miWest (260°)13.8 mph23.0 mphOvercast
3:55 PM20.8 °F13.6 °F74 %29.72 in2.0 miWest (270°)17.3 mph25.3 mphSnowLight Snow
4:15 PM21.0 °F11.3 °F66 %29.73 in10.0 miWest (260°)15.0 mph24.2 mphOvercast
4:35 PM20.7 °F10.2 °F64 %29.73 in10.0 miWest (260°)13.8 mph21.9 mphMostly Cloudy
4:55 PM20.8 °F12.6 °F70 %29.74 in3.0 miWest (270°)13.8 mph19.6 mphSnowLight Snow
5:15 PM19.8 °F13.8 °F78 %29.74 in1.8 miWest (280°)15.0 mphSnowLight Snow
5:35 PM18.5 °F14.9 °F86 %29.75 in0.8 miWest (270°)15.0 mph18.4 mphSnowLight Snow
5:55 PM18.5 °F14.0 °F83 %29.76 in5.0 miWest (260°)11.5 mph17.3 mphSnowLight Snow
6:15 PM18.5 °F14.5 °F85 %29.77 in3.0 miWest (270°)9.2 mphSnowLight Snow
6:35 PM18.5 °F13.8 °F82 %29.78 in10.0 miWest (260°)10.4 mph18.4 mphSnowLight Snow
7:15 PM17.8 °F13.3 °F83 %29.80 in7.0 miWest (270°)11.5 mphSnowLight Snow
7:35 PM18.0 °F13.5 °F83 %29.80 in5.0 miWest (270°)15.0 mph18.4 mphSnowLight Snow
7:55 PM18.0 °F12.9 °F81 %29.81 in4.0 miWest (270°)11.5 mphSnowLight Snow
8:15 PM17.6 °F11.5 °F77 %29.82 in7.0 miWest (270°)11.5 mph19.6 mphSnowLight Snow
8:35 PM17.4 °F11.8 °F79 %29.82 in5.0 miWest (270°)11.5 mph17.3 mphSnowLight Snow
8:55 PM17.4 °F12.2 °F80 %29.83 in4.0 miWest (270°)11.5 mphSnowLight Snow
9:15 PM17.2 °F12.9 °F83 %29.84 in3.0 miWest (270°)9.2 mphSnowLight Snow
9:36 PM17.2 °F12.9 °F83 %29.84 in2.0 miWest (260°)10.4 mph16.1 mphSnowLight Snow
9:55 PM17.1 °F13.1 °F84 %29.85 in2.0 miWest (270°)10.4 mphSnowLight Snow
10:15 PM17.2 °F13.5 °F85 %29.85 in2.0 miWest (270°)8.1 mphSnowLight Snow
10:36 PM16.7 °F13.1 °F86 %29.86 in2.5 miWest (270°)9.2 mph16.1 mphSnowLight Snow
10:55 PM16.7 °F12.7 °F84 %29.86 in7.0 miWest (270°)8.1 mphSnowLight Snow
11:15 PM16.7 °F11.5 °F80 %29.86 in10.0 miWest (280°)9.2 mphOvercast
11:36 PM15.8 °F10.0 °F78 %29.86 in10.0 miWest (280°)9.2 mphMostly Cloudy
11:55 PM15.8 °F10.0 °F78 %29.87 in10.0 miWest (280°)10.4 mphMostly Cloudy
Hourly data recorded from KTEW, located miles away from Williamston, Michigan







STORIES FROM OUR PARTNERS